Tracking 35275 objects as of 8-Sep-2026
HD Live streaming from Space Station
objects crossing your sky now

FACSAT 1


FACSAT 1 is no longer on orbit
FACSAT 1 is classified as:


NORAD ID: 43721
Int'l Code: 2018-096C
Launch date: November 29, 2018
Source: (TBD)
Launch site: SRIHARIKOTA (SRI)
Decay date: 2023-06-03

Uplink (MHz):
Downlink (MHz): 437.350
Beacon (MHz):
Mode: 9k6 MSK
Call sign:
Status: Reentered

Your satellite tracking list
Your tracking list is empty




NASA's NSSDC Master Catalog

Two Line Element Set (TLE):
1 43721U 18096C   23152.23867692  .05883969  24456-5  99677-3 0  9992
2 43721  97.2950 244.0408 0016894 270.5903  89.3457 16.32723665252069
Source of the keplerian elements: AFSPC